Simultaneous Nadir Overpasses (SNOs) Predictions

Prediction of SNOs near equator between AQUA and NPP Satellite Orbit:

Table of predicted SNOs near equator for the next 14.0 days since TLE Epoch: 9/1/2012
Index Date (AQUA) Time (AQUA) AQUA Lat,Lon Date (NPP) Time (NPP) NPP Lat,Lon Distance(km) Time Diff (sec)
1 09/02/2012 01:47:14 2.81, 176.61 09/02/2012 01:38:10 2.65, 175.83 87.83 544
2 09/04/2012 17:15:00 -5.85, 124.22 09/04/2012 17:05:06 -5.72, 123.62 67.82 594
3 09/04/2012 18:03:15 1.26, -67.18 09/04/2012 17:54:37 1.11, -68.05 98.15 518
4 09/07/2012 09:31:02 -4.33,-119.57 09/07/2012 09:21:34 -4.19,-120.26 78.21 568
5 09/10/2012 01:05:12 29.98,-177.24 09/10/2012 00:55:12 30.27,-178.14 92.86 600
6 09/10/2012 01:47:03 -2.76, -3.35 09/10/2012 01:38:01 -2.61, -4.14 88.64 542
7 09/12/2012 17:14:56 5.70, -55.75 09/12/2012 17:05:05 5.59, -56.36 68.90 591
8 09/12/2012 18:03:03 -1.16, 112.88 09/12/2012 17:54:27 -0.98, 112.00 99.05 516




NCC Satellite Simultaneous Nadir Overpasses (SNOs) Prediction Service
